Location: Archamps
(46.1365°N, 6.1329°E)
Time: 18:22:49
(UTC+00:00)

DELTA 2 DEB (DPAF) - Pass Details

Date: 28 January 2023
Orbit: 624 x 629 km, 98.4° (Epoch: 29 March)

Event Time Altitude Azimuth Distance (km) Brightness Sun altitude
Rises 17:18:57 0° 14° (NNE) 2,925 7.2 -8.0°
Reaches altitude 10° 17:21:09 10° 15° (NNE) 2,014 6.4 -8.4°
Maximum altitude 17:25:32 86° 104° (ESE) 638 4.1 -9.1°
Drops below altitude 10° 17:29:55 10° 194° (SSW) 2,007 7.1 -9.9°
Sets 17:32:06 0° 195° (SSW) 2,913 8.0 -10.2°
